Theta_e
324 322 323 323 322 321 321 321 321 321 324 325 324 324 324 322 321 321 321 323 324 324 324 325 326 325 325 325 326 328 327 327 326 325 328 330 329 329 328 327 326 324 324 325 325 325 323 322 320 320 318 317 318 320 320 320 320 319 319 319 320 320 321
320 319 321 321 320 320 320 322 323 323 324 324 324 324 324 323 322 322 322 323 324 324 324 324 324 324 325 324 324 327 327 327 327 324 325 328 328 329 328 328 328 325 324 323 323 323 323 321 320 319 318 316 317 318 318 319 319 318 318 319 319 319 319
320 321 321 319 319 320 321 322 322 322 323 324 324 325 325 324 324 324 324 324 324 323 324 324 323 323 323 322 323 326 326 326 326 323 325 328 327 327 328 327 327 326 325 324 322 322 322 320 319 319 319 318 317 317 317 317 317 317 317 317 317 317 318
321 322 321 320 321 321 321 322 322 323 323 324 324 324 324 322 322 323 324 324 322 322 324 324 324 323 321 320 320 322 322 323 324 323 324 326 325 325 326 326 325 325 324 323 322 321 320 319 319 318 318 318 317 316 315 315 314 314 314 314 315 316 316
318 321 322 320 322 322 322 322 322 323 323 324 323 323 323 322 322 322 323 323 323 322 324 323 324 324 323 321 319 320 321 321 322 323 323 324 326 325 325 324 323 323 322 320 320 319 318 318 318 318 317 316 316 315 314 314 313 312 312 313 313 314 314
318 321 321 320 321 320 321 321 321 322 322 323 323 322 322 322 323 323 322 323 322 321 322 323 323 324 324 323 321 321 322 323 323 325 325 325 325 324 322 320 319 319 318 317 318 317 317 318 318 316 315 315 315 314 313 313 311 310 310 310 311 312 313
321 322 321 320 320 319 320 321 321 322 323 322 322 321 322 323 323 322 321 321 321 320 320 320 321 322 323 323 323 322 323 324 324 324 324 323 322 320 318 316 315 314 314 313 315 315 315 317 317 316 315 314 314 314 313 312 311 309 308 308 309 310 311
322 322 321 320 320 319 319 321 322 322 322 321 321 321 321 321 318 317 317 318 319 320 320 319 320 321 322 322 322 321 321 320 320 320 320 318 317 315 314 313 313 312 312 311 312 312 314 315 316 316 315 314 314 314 314 312 311 309 308 308 308 309 310
320 319 321 320 319 319 320 322 322 322 321 320 319 318 318 316 314 313 314 314 316 318 318 319 319 319 320 320 320 318 316 315 315 315 313 311 309 309 310 312 313 312 312 313 313 313 314 315 315 315 315 314 314 314 313 313 312 310 309 309 308 308 309
320 316 315 314 312 315 319 322 322 321 320 317 314 314 316 316 315 314 312 310 311 313 314 316 315 315 316 317 315 314 313 312 311 310 309 307 305 306 309 313 314 313 314 314 314 314 314 315 315 315 316 314 314 314 313 313 313 311 310 309 308 308 307
321 315 312 308 306 308 312 316 319 318 315 311 308 309 311 312 311 310 308 307 307 308 310 311 311 312 313 312 311 309 307 307 307 306 306 306 307 310 313 315 316 315 315 314 313 314 314 315 315 316 316 315 315 315 315 315 314 312 312 310 309 308 307
322 317 311 306 305 305 306 308 311 310 308 307 305 306 309 310 310 308 307 306 306 305 307 308 309 310 310 307 306 306 305 305 306 307 307 308 310 312 314 316 316 314 313 314 314 315 315 315 315 316 316 316 317 316 316 316 316 314 313 311 309 308 308
322 318 310 306 305 305 305 305 306 305 306 306 306 308 311 312 311 310 309 307 306 305 306 306 307 307 306 306 308 306 305 307 308 310 311 312 312 313 314 315 315 314 314 315 316 316 317 316 316 316 316 316 317 317 317 316 316 314 313 312 310 308 309
322 318 310 308 309 307 305 305 305 305 305 306 307 311 314 313 312 312 311 309 308 307 306 306 306 308 308 309 310 309 309 311 312 312 312 313 314 314 315 314 313 313 314 316 315 316 316 316 316 316 316 316 316 316 316 316 316 315 313 312 310 308 309
321 319 313 312 312 310 308 305 305 305 305 307 310 312 314 314 314 313 313 312 310 309 309 309 310 311 311 309 308 310 313 313 312 312 313 313 314 314 314 314 312 311 313 314 314 314 314 315 315 315 315 316 316 316 316 316 315 315 313 312 310 309 309
321 320 318 316 315 313 310 307 306 305 305 310 314 315 314 314 315 315 315 314 313 312 312 312 314 313 310 308 308 311 314 314 313 312 312 312 313 312 313 314 312 310 310 311 313 314 314 314 314 315 315 315 315 315 315 315 315 315 314 312 311 309 309
322 321 321 320 319 318 315 312 310 308 307 310 313 315 314 314 315 316 316 316 315 314 314 313 314 316 314 313 313 312 313 314 313 313 313 313 312 312 313 314 313 311 310 311 313 314 313 313 314 314 315 314 314 314 314 315 314 314 314 313 312 311 310
324 323 322 322 321 320 319 317 317 314 313 313 312 313 314 314 314 314 313 315 315 314 312 310 312 315 314 315 315 314 314 315 315 316 316 315 315 315 315 316 316 315 314 314 315 315 314 314 314 315 315 314 314 314 315 315 315 314 314 314 313 312 312
325 324 323 322 322 321 320 319 319 318 317 317 315 313 314 314 314 312 311 312 312 312 312 310 311 312 311 311 314 315 316 317 317 317 318 318 317 317 317 317 317 317 317 317 317 316 316 315 315 315 315 315 314 313 314 316 316 315 315 314 314 313 313
325 324 323 323 323 322 321 319 320 319 318 319 318 317 316 315 315 314 313 313 313 313 314 314 313 314 314 315 317 318 319 319 319 319 319 319 318 318 318 318 318 318 318 318 317 317 317 316 316 316 315 315 314 313 314 315 316 315 315 315 314 314 314
324 324 324 324 323 323 321 320 320 319 319 320 320 319 319 317 316 316 315 314 314 314 315 316 316 316 317 319 320 321 320 319 320 320 319 319 319 319 319 318 318 318 318 318 317 317 316 316 316 316 315 315 315 314 314 314 315 315 315 315 315 314 314
324 325 324 324 323 323 322 321 321 320 320 321 320 320 320 320 318 317 316 316 316 316 317 318 318 317 319 321 321 322 321 320 321 322 320 320 320 319 318 318 318 318 318 317 316 316 316 316 316 316 315 315 315 315 314 314 314 315 314 314 314 313 313
325 325 325 324 324 323 323 322 322 321 321 321 321 320 321 321 320 319 318 318 318 318 319 318 317 316 318 320 320 320 320 320 321 321 320 320 320 318 317 317 317 318 318 318 316 315 315 315 315 316 315 315 315 315 314 314 314 314 314 314 313 312 312
325 325 325 324 324 324 323 323 322 321 321 321 321 321 321 321 321 320 319 320 320 320 319 316 314 313 315 317 318 317 318 318 318 318 318 318 318 316 316 316 316 317 317 317 316 315 315 315 315 315 315 315 315 315 314 314 314 314 314 314 313 312 312
324 324 324 324 324 324 323 323 323 322 322 320 319 320 321 320 321 320 320 321 321 320 318 316 315 314 313 314 315 316 317 316 316 315 315 316 315 314 314 315 316 316 316 316 315 314 313 314 314 315 316 316 316 316 315 315 314 313 313 313 313 313 312
322 322 323 323 323 324 324 324 323 323 323 322 321 321 320 319 319 319 320 321 322 321 320 318 317 316 314 314 314 315 316 316 315 314 314 315 314 312 311 310 312 313 313 311 310 310 310 309 309 310 313 314 316 316 317 317 316 313 312 312 312 312 312
320 321 321 322 322 323 323 323 324 323 323 323 323 323 322 321 320 319 320 320 321 322 321 319 318 317 316 315 314 314 315 315 315 314 314 315 313 312 310 306 308 313 312 305 302 305 308 307 303 304 306 308 310 313 315 317 317 315 312 310 308 309 310
316 318 319 320 321 321 321 321 321 322 322 323 323 323 323 322 322 320 319 319 319 320 320 319 318 317 316 315 315 315 315 315 315 315 316 315 313 311 307 303 305 310 309 303 300 303 305 305 302 302 304 305 306 308 310 313 315 315 313 310 307 306 307
313 315 316 317 318 319 319 319 319 320 321 322 322 322 322 322 321 320 320 319 319 319 319 319 318 317 315 316 316 315 315 315 315 315 316 315 312 309 306 305 308 308 303 302 302 302 302 303 302 302 303 304 305 306 309 312 313 312 311 309 307 306 305
311 312 313 314 315 317 318 319 319 320 321 321 322 322 322 321 320 320 320 320 319 319 319 318 318 317 316 315 314 314 314 314 314 315 315 313 311 308 304 306 308 306 302 302 302 302 302 302 304 305 305 306 307 309 311 311 310 309 308 306 306 305 305
310 311 311 312 313 315 316 316 318 319 320 321 321 321 321 321 319 319 320 320 319 319 318 317 317 317 317 315 313 313 313 314 314 314 313 312 309 305 302 303 303 302 302 302 302 302 302 302 306 308 307 307 308 309 308 308 307 307 306 305 305 305 305
308 309 309 310 311 313 314 315 315 317 319 320 320 320 321 320 319 319 320 320 319 319 318 317 316 316 317 315 312 313 314 314 314 313 312 310 306 302 302 303 302 302 302 302 302 302 301 302 308 311 309 308 309 308 307 306 306 306 305 305 306 305 305
307 307 307 308 308 309 311 313 314 315 317 319 319 319 320 320 320 320 320 320 319 318 318 318 316 316 316 314 312 313 314 314 313 312 311 309 305 302 303 303 302 302 302 302 302 302 301 302 307 309 309 309 309 308 308 307 305 305 305 305 305 304 303
304 305 305 306 306 307 308 310 312 314 315 317 318 318 319 319 319 320 320 320 319 318 318 318 316 315 315 314 313 313 313 313 313 312 311 308 305 303 303 303 302 302 302 302 301 301 301 301 303 304 305 306 307 307 307 306 305 304 304 303 303 303 302
300 301 302 303 304 305 307 308 309 312 313 314 315 317 318 319 319 319 319 319 319 318 318 318 316 314 314 314 313 312 312 312 311 310 309 308 307 305 303 302 302 302 302 302 301 301 301 300 301 301 301 302 303 304 304 304 303 303 302 302 302 302 301
297 297 299 300 301 302 305 307 308 310 312 312 313 315 316 318 318 318 318 317 318 318 317 317 316 315 313 312 311 310 310 311 310 308 308 308 308 306 304 302 302 302 302 302 301 301 301 300 300 300 301 301 301 302 302 302 302 302 301 301 301 300 300
298 298 299 300 301 301 302 304 306 308 310 311 312 313 315 317 318 316 315 316 316 316 317 316 316 315 314 312 310 308 309 310 309 308 308 308 308 307 304 303 303 303 302 302 301 301 300 300 300 300 300 301 301 301 301 301 301 301 301 300 300 300 300
Wind_Speed
6 7 8 7 7 6 5 5 4 4 4 2 2 3 2 2 2 2 2 2 2 1 2 4 6 6 6 7 7 7 7 6 7 7 6 5 5 6 6 6 7 7 11 12 9 8 9 8 6 5 5 5 6 7 7 7 6 6 8 9 8 8 9
7 7 7 6 6 6 6 6 5 4 5 4 3 3 3 2 2 2 3 4 5 3 3 4 5 7 8 7 7 8 8 7 7 8 7 6 5 5 5 6 6 6 10 11 8 7 6 7 7 6 6 6 7 8 7 7 7 8 9 9 9 8 9
7 7 6 6 6 6 6 6 6 5 5 5 4 4 4 3 2 3 3 4 6 6 5 5 5 6 7 6 7 8 8 8 8 8 8 7 6 6 6 6 6 5 7 9 7 6 5 5 6 7 7 7 8 8 8 8 8 8 8 9 8 8 8
8 7 6 6 5 5 6 6 6 5 5 5 5 4 4 4 4 5 5 5 4 5 6 5 5 5 6 5 6 7 7 8 7 7 9 9 7 6 5 5 4 4 4 4 4 5 5 4 5 7 7 7 8 8 8 7 7 7 8 8 8 8 8
8 8 6 6 6 5 5 6 6 6 6 5 5 4 5 5 5 6 7 5 4 6 6 6 6 6 6 5 5 5 5 5 5 6 9 9 7 6 6 5 4 4 3 3 3 3 3 5 6 6 7 7 8 8 7 7 7 7 7 8 8 8 7
9 8 6 6 6 5 6 6 6 6 6 5 4 4 5 6 5 6 6 5 5 6 7 7 7 7 7 6 6 5 5 5 6 7 7 9 9 7 6 5 5 4 4 3 3 3 3 6 6 6 7 7 6 7 6 6 7 7 7 7 7 7 7
9 8 7 6 6 6 6 7 7 7 7 6 5 5 6 6 6 7 7 8 7 6 7 8 8 9 8 7 7 8 7 7 8 9 8 8 9 8 6 5 5 5 4 4 4 3 4 6 5 5 7 6 4 5 6 6 5 5 7 6 6 5 4
9 9 8 7 7 6 7 8 7 8 7 7 6 6 7 7 7 7 8 10 10 8 8 8 8 10 10 8 9 10 10 9 9 9 9 8 8 8 7 6 6 5 5 4 4 4 4 5 4 5 6 5 5 4 5 6 5 5 5 5 5 5 4
10 10 9 8 9 9 8 8 8 8 8 7 7 8 8 7 7 7 8 11 11 9 9 9 8 9 10 8 9 10 10 9 9 9 8 8 8 8 9 8 7 6 7 6 5 4 4 4 5 6 5 5 6 5 5 4 4 4 4 3 4 4 3
9 9 10 9 10 11 11 10 10 10 9 9 9 9 9 8 8 9 9 11 12 11 10 9 8 9 10 8 9 11 11 10 10 9 9 9 9 9 10 9 8 7 7 6 6 7 6 6 7 6 4 4 4 5 6 5 4 3 3 3 4 3 3
10 9 9 9 10 12 13 14 14 13 12 12 13 12 10 9 9 9 10 10 11 12 11 10 9 9 9 9 10 10 11 11 11 11 11 11 11 11 10 9 8 8 8 7 8 8 7 7 6 4 3 3 1 1 5 6 6 4 2 3 3 3 2
11 9 9 10 10 11 12 13 14 14 13 13 15 14 11 9 9 9 9 10 10 11 11 11 10 10 9 10 10 10 11 12 12 13 13 12 12 12 12 10 8 9 10 9 9 9 7 7 5 3 3 2 2 4 4 4 4 4 3 2 1 1 1
11 10 10 11 11 10 9 10 12 14 13 13 14 13 10 9 9 8 8 9 10 10 11 11 11 11 11 10 9 10 12 12 12 13 12 11 11 11 11 10 9 10 10 8 7 8 6 5 5 4 4 4 3 5 4 2 3 4 3 1 1 1 1
12 12 12 11 9 9 10 10 11 13 14 13 13 12 10 9 9 9 8 9 9 10 12 13 12 12 12 12 11 12 12 11 10 11 12 11 10 10 8 7 9 10 8 6 5 5 4 4 5 4 3 3 2 3 2 2 3 3 1 0 1 1 3
14 14 14 11 8 9 10 10 11 12 13 12 11 10 10 10 9 9 9 9 9 10 11 13 12 11 12 14 15 14 11 9 10 11 11 10 8 9 8 6 7 8 7 7 6 3 3 4 2 2 2 1 1 2 1 1 2 1 1 1 1 2 2
14 15 16 14 12 12 11 10 10 11 11 11 11 10 11 11 11 10 10 10 10 10 11 12 12 11 12 14 15 14 12 9 10 10 9 8 7 8 8 6 6 7 8 8 7 3 4 5 3 2 4 2 1 1 1 1 1 1 1 1 1 3 3
13 15 16 16 14 14 13 11 10 11 11 10 11 11 11 11 12 12 12 12 12 12 12 13 13 12 12 12 11 12 12 10 10 9 8 7 6 6 7 6 5 6 7 7 6 3 4 6 3 2 4 3 2 2 1 1 1 0 1 1 2 2 3
13 14 14 14 12 14 16 14 11 11 11 11 11 11 11 11 12 13 13 12 13 13 13 15 14 13 14 14 12 12 11 10 10 9 8 8 7 6 6 6 5 5 6 6 5 4 4 6 4 3 4 4 4 4 2 1 2 2 3 3 4 4 4
11 12 13 12 12 14 16 15 13 12 12 11 12 12 12 11 11 12 12 12 12 12 13 14 14 13 15 15 14 12 10 9 9 9 8 8 7 7 7 6 6 6 6 6 6 5 5 6 5 4 5 6 5 4 4 3 3 4 4 5 5 5 6
11 11 12 12 12 13 14 14 14 13 12 12 12 12 12 12 12 12 12 13 13 13 13 13 13 13 13 13 12 11 10 10 9 8 8 7 7 7 7 8 8 8 9 8 8 7 7 7 7 6 7 7 5 3 4 5 5 5 5 5 6 6 6
10 11 12 11 11 11 12 13 13 14 13 13 13 13 13 13 14 13 14 14 14 15 15 15 15 15 14 14 13 11 11 11 9 8 9 8 8 9 9 9 10 9 10 10 10 10 9 10 10 9 8 8 7 6 6 6 6 7 8 7 7 8 8
10 10 10 10 10 11 12 13 13 14 14 14 15 14 14 14 14 14 15 15 16 16 17 17 17 17 17 16 14 14 13 12 10 9 8 8 11 12 11 11 11 10 12 15 15 14 13 13 13 11 9 9 9 9 9 8 8 8 9 9 10 10 10
8 8 9 10 10 11 12 13 14 15 14 15 16 16 15 15 15 16 16 16 17 18 19 20 19 19 19 19 18 19 19 17 14 13 11 10 12 13 11 12 13 13 14 16 17 17 15 15 16 15 13 13 12 12 11 11 10 11 11 12 12 12 11
6 7 8 10 10 11 13 14 15 15 15 15 16 16 16 16 17 18 18 18 19 22 23 23 21 20 22 22 22 21 22 21 18 15 13 11 11 11 11 10 10 11 12 14 15 16 16 15 16 17 17 17 17 17 16 14 12 11 12 14 13 12 12
3 5 7 9 11 12 14 15 15 15 16 17 17 18 19 19 19 20 20 20 22 25 27 26 23 22 23 24 23 22 23 23 21 18 18 15 12 12 12 10 8 8 10 13 13 13 14 14 16 17 17 17 18 20 21 20 16 14 13 12 11 11 12
2 3 5 7 9 11 13 14 15 16 17 17 18 19 21 22 22 23 23 23 22 24 27 28 25 24 24 24 24 24 24 24 23 23 23 20 18 17 15 14 11 10 13 16 15 12 11 12 13 15 16 17 18 19 20 20 20 19 18 14 9 7 9
3 3 4 5 6 9 11 12 14 15 16 17 18 19 20 21 23 25 26 26 25 24 26 28 27 25 24 24 24 25 26 24 23 23 23 24 25 23 18 17 14 12 14 15 12 9 9 11 11 10 12 15 16 17 17 18 19 20 21 20 16 11 11
4 4 4 4 6 8 9 11 13 14 16 17 18 21 22 22 23 26 29 31 30 28 27 27 27 26 26 25 25 26 27 25 23 20 20 23 25 22 19 17 14 14 14 12 9 8 9 10 10 9 11 13 14 15 17 17 18 19 20 21 19 17 18
6 5 5 5 6 8 9 11 12 13 15 16 17 20 23 23 24 25 27 29 29 29 28 27 27 29 28 27 27 27 25 25 24 21 19 20 18 16 15 13 11 13 14 11 9 9 9 10 10 10 12 13 14 14 15 14 15 15 17 18 18 18 19
6 6 6 6 7 8 9 11 12 12 13 14 16 18 21 22 22 22 24 25 26 29 31 29 29 30 29 28 29 27 24 24 23 21 18 16 15 16 15 12 11 13 13 10 9 9 8 9 9 10 12 13 13 13 12 11 11 12 13 15 16 18 19
7 7 7 7 8 9 9 11 12 12 13 14 16 18 20 22 21 20 21 23 26 28 29 27 27 27 26 28 29 26 24 23 21 20 18 17 17 17 15 14 14 14 11 10 9 7 7 7 7 8 10 10 9 10 10 10 10 11 13 15 17 19 20
10 10 9 9 8 9 10 11 12 13 14 15 16 17 19 21 21 20 21 23 25 26 25 25 25 24 23 25 28 27 25 23 22 21 20 19 18 17 15 15 15 12 10 9 7 6 6 6 7 7 7 6 5 7 9 10 10 11 13 15 18 20 22
12 14 15 15 14 13 12 12 12 13 14 15 16 17 18 19 20 21 22 24 27 27 25 25 26 25 23 25 30 29 24 23 25 22 19 19 19 18 16 15 14 12 10 8 6 6 6 7 9 8 7 8 8 9 11 12 12 12 14 15 18 20 21
16 19 21 21 21 19 17 14 13 14 14 15 16 18 19 20 21 21 21 22 25 27 26 25 26 26 23 25 31 30 25 24 24 22 20 18 18 18 16 15 14 11 9 7 6 6 6 8 9 9 9 10 13 14 14 14 14 14 15 15 15 15 14
23 25 25 25 24 24 22 20 18 16 16 17 17 19 20 20 20 21 20 22 23 24 24 25 26 26 24 26 32 34 30 25 21 21 20 18 16 17 16 14 13 11 8 7 6 5 5 6 8 9 9 11 13 14 15 14 12 11 10 10 10 9 10
27 27 27 27 28 27 25 23 20 18 18 18 19 20 20 19 20 21 22 24 25 23 22 24 24 24 24 27 32 34 30 24 21 20 18 17 18 17 15 12 11 10 8 6 4 3 3 4 6 7 8 9 11 12 13 12 10 8 7 7 8 10 10
25 24 23 24 25 27 27 26 23 21 19 19 19 20 20 19 20 21 21 21 23 24 25 25 21 20 23 28 33 32 25 21 22 21 17 17 20 17 13 10 10 8 6 4 3 2 3 4 5 7 8 8 9 9 8 7 7 7 7 8 9 9 9
Wind_Direction
139 138 133 132 129 131 129 119 122 122 117 134 151 140 134 144 181 181 164 161 160 190 175 172 187 184 190 203 196 202 212 214 224 214 196 193 195 213 219 204 195 181 182 185 176 170 160 141 137 124 107 105 93 83 79 71 64 72 78 69 59 57 58
141 139 130 132 135 136 134 127 128 133 138 146 143 134 120 103 124 145 150 144 132 131 143 154 166 163 172 188 185 191 199 194 209 215 199 186 186 201 205 196 191 182 183 186 181 179 163 141 141 131 114 103 89 81 79 77 72 70 74 73 67 60 57
140 138 137 141 139 137 139 140 142 146 151 151 146 133 117 114 136 132 126 127 130 139 138 133 146 153 160 172 175 184 190 186 200 211 194 180 184 190 183 177 183 182 180 183 174 162 156 144 138 136 130 113 100 92 84 82 81 77 73 74 74 70 71
148 147 148 148 142 142 145 144 146 148 151 152 152 142 133 152 162 137 114 97 104 123 120 117 129 142 152 167 179 188 197 195 197 200 182 168 163 162 157 159 162 156 162 167 157 158 166 155 137 136 135 123 113 107 99 94 87 82 77 72 73 72 73
155 154 154 153 151 154 153 151 151 151 152 150 148 145 140 143 141 124 112 101 104 111 105 108 123 132 139 150 160 166 182 186 175 169 163 151 136 133 137 133 121 120 125 118 139 165 164 151 148 143 135 128 120 113 108 103 91 82 76 70 70 67 66
155 153 152 153 154 158 159 156 152 148 149 149 143 140 137 131 125 121 119 119 129 127 112 107 110 112 119 128 138 141 142 147 141 133 135 138 132 120 112 110 104 111 114 111 138 151 138 144 154 148 134 129 126 124 123 117 104 89 75 65 66 63 60
152 151 152 158 157 157 157 153 151 148 149 151 145 138 134 135 140 144 145 143 141 134 125 119 111 100 97 106 116 119 116 115 119 120 118 121 123 115 108 110 115 119 113 115 128 126 133 145 154 149 134 130 138 142 140 129 109 89 77 65 60 61 54
153 149 151 158 156 155 155 153 151 149 148 148 148 147 144 147 152 151 155 156 148 133 119 113 107 104 103 105 106 107 111 114 115 119 123 123 126 130 127 113 107 106 99 103 114 124 145 152 154 150 137 141 151 140 129 118 99 88 83 67 59 58 30
169 159 156 164 164 157 152 152 152 150 149 149 150 148 142 137 135 135 146 156 155 146 131 119 114 116 116 117 115 111 112 115 116 119 129 137 142 142 127 106 100 105 104 107 109 116 129 135 143 142 139 152 148 132 126 114 99 91 83 69 60 60 42
196 183 178 183 178 165 156 156 159 157 157 160 159 150 141 135 132 131 139 150 154 155 145 133 131 127 120 121 126 127 129 130 131 132 135 140 141 133 118 101 97 103 105 112 118 117 114 120 138 142 146 165 155 147 157 140 114 106 90 75 56 46 41
206 197 194 192 181 172 170 172 173 171 170 172 168 159 151 146 142 142 144 148 152 152 144 137 133 127 125 133 140 145 149 146 143 141 140 141 135 125 115 103 101 114 118 119 121 121 115 116 134 143 141 174 254 146 161 144 124 119 97 86 78 70 54
211 201 194 185 172 170 178 182 182 179 177 177 172 164 156 150 147 148 150 152 156 156 150 143 136 131 137 145 146 149 150 144 142 142 140 141 138 131 123 110 105 116 116 112 110 111 109 109 120 117 108 123 33 59 118 144 141 131 112 107 109 94 97
217 202 186 171 160 162 173 180 181 177 175 177 173 161 152 152 150 146 149 152 155 156 154 147 141 139 138 135 135 143 143 137 137 138 134 133 131 127 119 111 115 116 108 103 105 104 106 108 110 102 97 101 77 77 99 140 140 134 139 143 87 358 320
214 200 187 176 172 178 179 178 178 175 173 174 168 157 151 155 153 146 145 148 151 155 155 148 141 137 135 134 135 136 131 126 130 136 136 133 129 124 117 120 135 131 116 116 123 116 119 119 111 104 98 99 99 90 95 122 122 127 186 286 117 241 312
217 206 200 195 203 211 196 180 177 175 172 166 158 157 159 157 154 154 150 149 150 151 149 144 137 136 144 149 147 138 127 127 138 142 139 136 140 143 135 134 151 153 146 143 144 145 152 152 155 153 141 115 114 109 74 118 145 150 230 339 169 236 317
212 210 213 215 220 221 202 180 175 178 178 167 158 163 168 164 161 163 159 157 156 152 152 150 143 144 153 154 153 147 139 141 147 145 141 140 152 161 152 151 174 185 181 166 157 164 176 186 212 176 163 177 156 132 70 148 184 151 167 262 285 231 282
203 208 219 224 224 218 208 194 183 182 184 179 172 171 174 174 172 171 168 167 164 162 166 164 153 150 155 152 154 158 155 154 152 147 148 151 159 172 166 164 181 194 193 179 173 189 191 195 213 165 172 194 186 177 147 140 167 29 154 253 316 277 292
204 209 214 217 219 217 213 208 201 194 188 186 185 182 180 181 183 184 182 180 179 178 179 177 168 167 170 165 163 167 165 163 162 158 162 167 170 177 178 179 189 197 196 188 185 197 197 197 205 195 194 204 202 202 203 181 216 260 256 258 285 298 309
200 205 209 210 214 218 217 211 206 203 196 193 194 191 188 187 190 195 195 192 193 191 189 187 183 182 184 179 175 173 170 172 174 172 177 182 184 190 193 195 200 205 208 204 199 200 205 206 206 209 216 219 220 215 213 219 228 243 258 262 265 279 294
196 198 207 210 213 218 217 208 203 203 202 201 201 199 197 196 195 197 200 198 197 195 193 192 190 188 186 184 180 177 177 178 179 182 187 190 198 208 212 214 215 218 220 221 220 216 219 224 220 221 226 226 229 232 223 230 242 246 254 266 269 274 283
200 200 208 211 211 212 211 208 208 210 210 209 209 207 206 205 203 200 201 201 199 197 193 190 192 191 187 185 183 183 186 185 185 196 199 197 207 214 217 223 227 232 234 234 235 229 227 235 237 235 239 239 238 241 240 237 246 255 258 264 270 275 282
205 205 214 216 212 211 211 212 215 217 218 218 218 217 214 213 211 208 207 204 201 199 195 193 197 199 194 190 185 182 183 182 183 196 201 208 220 221 222 226 228 234 240 239 238 236 232 234 238 237 238 243 241 240 242 241 247 261 264 265 272 275 278
211 210 216 218 219 223 224 222 222 223 224 226 226 225 224 220 217 214 213 209 205 202 200 203 210 211 204 200 198 196 194 189 187 193 201 213 225 229 233 240 239 236 239 243 243 245 245 243 245 245 239 239 239 236 237 243 251 260 260 264 273 275 275
215 217 221 223 225 231 236 236 235 233 231 229 228 228 227 224 221 219 217 212 210 212 216 224 231 230 223 220 223 223 216 208 203 205 217 226 232 234 237 251 259 248 246 255 253 248 249 251 252 253 250 247 245 243 245 251 254 253 256 266 274 272 272
216 221 228 235 238 240 243 244 242 241 238 236 235 232 229 227 224 225 224 219 217 225 233 239 241 238 233 231 234 236 233 232 232 232 235 239 241 240 237 241 258 256 251 259 260 254 253 253 251 253 256 255 253 252 255 259 256 244 240 253 269 273 275
260 237 231 239 243 244 246 247 245 244 243 242 239 235 235 236 235 233 232 227 223 228 237 241 240 238 237 234 233 233 237 244 247 242 240 244 245 244 241 237 241 249 249 251 258 260 256 253 253 253 254 256 258 260 262 265 262 251 238 234 244 270 274
303 276 252 248 246 243 247 250 250 247 245 243 240 236 237 238 237 236 235 233 227 226 234 241 239 233 233 236 235 235 237 241 245 245 245 248 248 245 243 242 239 239 243 246 250 246 240 249 261 263 259 259 259 261 262 263 261 255 247 240 240 247 252
333 307 283 267 259 258 259 258 255 252 248 245 244 244 243 240 240 242 242 242 238 232 233 238 236 232 235 238 237 238 238 239 241 240 236 241 244 242 240 239 232 227 234 241 243 237 236 250 263 267 265 265 263 263 265 265 263 259 255 249 245 248 254
340 327 308 290 277 272 270 268 266 260 254 250 247 247 246 245 246 246 244 244 242 236 232 233 235 239 240 234 233 237 236 232 232 230 226 229 232 227 225 221 215 225 234 233 232 235 239 250 260 264 266 267 267 269 271 271 266 259 256 255 253 255 262
329 322 314 306 295 283 275 274 273 265 257 254 251 249 249 248 247 245 242 241 238 237 237 237 239 242 238 234 237 238 227 217 218 218 215 209 205 208 212 205 206 222 229 225 225 230 234 244 253 258 262 264 267 268 266 261 256 252 251 253 255 259 266
311 308 307 306 300 291 284 279 275 268 259 253 252 253 253 252 251 249 246 242 241 242 245 244 241 239 237 235 232 219 204 200 201 201 196 190 197 209 211 208 215 223 222 220 223 226 230 231 229 240 253 259 261 263 260 255 251 252 254 256 260 266 271
298 294 291 292 293 292 290 286 279 271 263 256 254 254 254 255 254 251 248 247 248 249 249 247 243 237 231 224 210 195 190 192 192 191 188 188 200 210 205 205 215 219 216 216 214 215 224 212 197 211 233 235 234 249 255 257 258 259 262 267 271 274 276
292 288 284 283 285 284 285 288 285 277 268 262 258 256 255 257 256 253 251 253 254 253 251 247 242 235 227 214 200 191 189 191 192 189 184 188 201 205 202 204 210 209 208 210 203 203 208 197 191 199 211 216 221 230 240 252 264 268 271 277 281 284 289
282 281 279 280 282 280 278 278 280 280 274 266 262 259 258 256 256 256 256 256 257 257 254 248 240 235 228 215 204 197 191 189 193 188 179 181 193 198 198 201 202 201 200 199 197 199 200 201 209 219 224 225 226 231 242 257 271 277 281 288 293 295 299
280 279 278 278 277 276 275 273 272 273 272 269 265 262 260 257 256 256 254 253 255 255 253 251 246 239 231 215 203 198 193 189 189 186 178 172 175 189 196 195 192 194 193 193 197 199 202 211 223 234 239 237 237 243 251 262 274 284 289 294 295 291 290
282 281 279 277 275 273 272 271 269 268 268 267 264 262 262 257 253 250 248 251 253 249 246 250 249 242 232 217 202 195 192 187 183 185 184 171 168 183 195 187 184 189 189 192 200 203 220 232 235 242 248 251 254 257 261 268 277 283 284 283 284 287 290
280 279 278 276 274 272 270 268 267 265 264 264 261 259 258 254 250 249 248 252 253 247 243 246 247 240 231 217 203 195 190 181 178 183 183 172 175 191 197 183 182 191 190 195 210 221 245 253 256 265 266 264 267 268 270 277 281 280 283 288 292 294 293